Check out our new BloomSky Weather System.

Active alerts


No alerts


Thunder radar  blitzortung!


Rain radar more information rain snow radar


Visit our other weather sites:

Template documentation
and downloads

And another site



Weather Underground History page Text

Daily Summary for June 21, 2017 Units:  English    Metric   Both
« Previous Day
Next Day »
Daily Weekly Monthly Yearly Custom
  High: Low: Average:
Temperature: 87.6 °F 76.1 °F 80.7 °F
Dew Point: 75.9 °F 72.0 °F 73.9 °F
Humidity: 94 % 63 % 81 %
Wind Speed: 15.0 mph 0.0 mph 4.6 mph
Wind Gust: 21.0 mph - -
Wind:- - West
Pressure: 29.86 in 29.60 in -
Precipitation: 0.00 in    
Historical Graphs
 
 
Tabular Data for June 21, 2017
Time Temperature Dew Point Pressure Wind Wind Speed Wind Gust Humidity Rainfall Rate (Hourly)
00:00 81.1 °F 75.6 °F 29.86 in NW 2.0 mph 7.0 mph 83 % 0.00 in
00:05 81.1 °F 75.9 °F 29.86 in NE 4.0 mph 4.0 mph 84 % 0.00 in
00:10 81.0 °F 75.7 °F 29.86 in NNW 1.0 mph 4.0 mph 84 % 0.00 in
00:15 81.0 °F 75.7 °F 29.86 in Calm   5.0 mph 84 % 0.00 in
00:20 80.8 °F 75.6 °F 29.86 in West 2.0 mph 5.0 mph 84 % 0.00 in
00:25 80.8 °F 75.6 °F 29.86 in NNW 1.0 mph 5.0 mph 84 % 0.00 in
00:30 80.8 °F 75.9 °F 29.85 in NW 2.0 mph 5.0 mph 85 % 0.00 in
00:35 80.6 °F 75.7 °F 29.85 in Calm   5.0 mph 85 % 0.00 in
00:40 80.6 °F 75.7 °F 29.85 in Calm   5.0 mph 85 % 0.00 in
00:45 80.4 °F 75.6 °F 29.85 in NW 2.0 mph 6.0 mph 85 % 0.00 in
00:50 80.4 °F 75.2 °F 29.85 in NW 3.0 mph 9.0 mph 84 % 0.00 in
00:55 80.4 °F 75.2 °F 29.84 in Calm   9.0 mph 84 % 0.00 in
01:00 80.2 °F 75.4 °F 29.84 in NNW 1.0 mph 9.0 mph 85 % 0.00 in
01:05 80.2 °F 75.4 °F 29.84 in North 3.0 mph 9.0 mph 85 % 0.00 in
01:10 80.1 °F 75.2 °F 29.84 in NNE 1.0 mph 9.0 mph 85 % 0.00 in
01:15 80.1 °F 75.2 °F 29.84 in WNW 2.0 mph 9.0 mph 85 % 0.00 in
01:20 80.1 °F 75.6 °F 29.84 in Calm   9.0 mph 86 % 0.00 in
01:25 79.9 °F 75.4 °F 29.84 in Calm   7.0 mph 86 % 0.00 in
01:30 79.9 °F 75.4 °F 29.84 in NW 1.0 mph 7.0 mph 86 % 0.00 in
01:35 79.7 °F 75.2 °F 29.84 in North 1.0 mph 7.0 mph 86 % 0.00 in
01:40 79.5 °F 75.4 °F 29.84 in NNW 3.0 mph 7.0 mph 87 % 0.00 in
01:45 79.5 °F 75.4 °F 29.84 in Calm   7.0 mph 87 % 0.00 in
01:50 79.5 °F 75.4 °F 29.84 in NNW 1.0 mph 7.0 mph 87 % 0.00 in
01:55 79.3 °F 75.2 °F 29.83 in NNW 3.0 mph 6.0 mph 87 % 0.00 in
02:00 79.3 °F 75.2 °F 29.83 in West 1.0 mph 6.0 mph 87 % 0.00 in
02:05 79.3 °F 75.2 °F 29.83 in NNW 1.0 mph 5.0 mph 87 % 0.00 in
02:10 79.2 °F 75.4 °F 29.83 in NW 1.0 mph 5.0 mph 88 % 0.00 in
02:15 79.2 °F 75.4 °F 29.83 in NNE 4.0 mph 6.0 mph 88 % 0.00 in
02:20 79.2 °F 75.4 °F 29.83 in North 2.0 mph 7.0 mph 88 % 0.00 in
02:25 79.2 °F 75.4 °F 29.83 in Calm   7.0 mph 88 % 0.00 in
02:30 79.2 °F 75.4 °F 29.82 in NE 2.0 mph 8.0 mph 88 % 0.00 in
02:35 79.2 °F 75.4 °F 29.82 in NNW 4.0 mph 9.0 mph 88 % 0.00 in
02:40 79.2 °F 75.4 °F 29.82 in NNW 4.0 mph 9.0 mph 88 % 0.00 in
02:45 79.2 °F 75.4 °F 29.81 in NW 4.0 mph 9.0 mph 88 % 0.00 in
02:50 79.0 °F 75.2 °F 29.81 in NNW 3.0 mph 9.0 mph 88 % 0.00 in
02:53 79.0 °F 75.4 °F 29.81 in NNE 4.0 mph 9.0 mph 89 % 0.00 in
02:58 78.8 °F 75.2 °F 29.81 in NW 2.0 mph 7.0 mph 89 % 0.00 in
03:03 78.6 °F 75.0 °F 29.80 in NW 2.0 mph 7.0 mph 89 % 0.00 in
03:08 78.6 °F 75.0 °F 29.80 in WNW 1.0 mph 6.0 mph 89 % 0.00 in
03:13 78.6 °F 75.0 °F 29.79 in NNW 4.0 mph 6.0 mph 89 % 0.00 in
03:18 78.4 °F 74.8 °F 29.79 in NW 1.0 mph 6.0 mph 89 % 0.00 in
03:23 78.4 °F 74.8 °F 29.79 in North 2.0 mph 6.0 mph 89 % 0.00 in
03:28 78.3 °F 74.7 °F 29.79 in NW 1.0 mph 6.0 mph 89 % 0.00 in
03:33 78.3 °F 74.7 °F 29.79 in NNW 4.0 mph 6.0 mph 89 % 0.00 in
03:39 78.1 °F 74.5 °F 29.78 in NNW 4.0 mph 5.0 mph 89 % 0.00 in
03:44 78.1 °F 74.5 °F 29.78 in NNW 2.0 mph 9.0 mph 89 % 0.00 in
03:49 78.1 °F 74.5 °F 29.78 in NW 2.0 mph 9.0 mph 89 % 0.00 in
03:54 77.9 °F 74.7 °F 29.78 in NNW 2.0 mph 9.0 mph 90 % 0.00 in
03:59 77.7 °F 74.5 °F 29.78 in North 2.0 mph 6.0 mph 90 % 0.00 in
04:04 77.7 °F 74.5 °F 29.78 in NNW 3.0 mph 6.0 mph 90 % 0.00 in
04:09 77.7 °F 74.5 °F 29.78 in NNW 1.0 mph 6.0 mph 90 % 0.00 in
04:14 77.5 °F 74.3 °F 29.78 in NNW 4.0 mph 6.0 mph 90 % 0.00 in
04:19 77.5 °F 74.3 °F 29.78 in Calm   5.0 mph 90 % 0.00 in
04:24 77.5 °F 74.3 °F 29.78 in NW 1.0 mph 5.0 mph 90 % 0.00 in
04:29 77.5 °F 74.3 °F 29.78 in NNW 1.0 mph 7.0 mph 90 % 0.00 in
04:34 77.4 °F 74.1 °F 29.78 in NNW 2.0 mph 7.0 mph 90 % 0.00 in
04:39 77.4 °F 74.1 °F 29.78 in NNW 1.0 mph 7.0 mph 90 % 0.00 in
04:44 77.4 °F 74.1 °F 29.78 in WNW 1.0 mph 6.0 mph 90 % 0.00 in
04:49 77.4 °F 74.1 °F 29.78 in NW 1.0 mph 8.0 mph 90 % 0.00 in
04:54 77.2 °F 73.9 °F 29.78 in NW 2.0 mph 8.0 mph 90 % 0.00 in
04:59 77.2 °F 73.9 °F 29.78 in NNW 3.0 mph 8.0 mph 90 % 0.00 in
05:04 77.2 °F 74.3 °F 29.78 in NNW 2.0 mph 5.0 mph 91 % 0.00 in
05:09 77.0 °F 74.1 °F 29.78 in NNW 4.0 mph 4.0 mph 91 % 0.00 in
05:14 77.0 °F 74.1 °F 29.78 in North 2.0 mph 6.0 mph 91 % 0.00 in
05:24 76.8 °F 73.9 °F 29.77 in NW 4.0 mph 6.0 mph 91 % 0.00 in
05:29 76.8 °F 74.3 °F 29.77 in NW 2.0 mph 6.0 mph 92 % 0.00 in
05:34 76.6 °F 74.1 °F 29.77 in NNW 3.0 mph 8.0 mph 92 % 0.00 in
05:39 76.6 °F 74.1 °F 29.77 in NNW 3.0 mph 8.0 mph 92 % 0.00 in
05:44 76.6 °F 74.1 °F 29.77 in NW 4.0 mph 8.0 mph 92 % 0.00 in
05:49 76.5 °F 73.9 °F 29.77 in NNW 3.0 mph 7.0 mph 92 % 0.00 in
05:54 76.5 °F 73.9 °F 29.77 in NNW 2.0 mph 8.0 mph 92 % 0.00 in
05:59 76.5 °F 73.9 °F 29.77 in NNW 4.0 mph 8.0 mph 92 % 0.00 in
06:04 76.5 °F 73.9 °F 29.77 in North 3.0 mph 8.0 mph 92 % 0.00 in
06:09 76.3 °F 73.8 °F 29.77 in NNW 6.0 mph 7.0 mph 92 % 0.00 in
06:14 76.3 °F 73.8 °F 29.76 in WNW 3.0 mph 7.0 mph 92 % 0.00 in
06:19 76.3 °F 73.8 °F 29.77 in NW 5.0 mph 8.0 mph 92 % 0.00 in
06:24 76.3 °F 73.4 °F 29.77 in WNW 3.0 mph 10.0 mph 91 % 0.00 in
06:29 76.3 °F 73.4 °F 29.77 in NNW 4.0 mph 10.0 mph 91 % 0.00 in
06:34 76.3 °F 73.0 °F 29.77 in NNW 4.0 mph 10.0 mph 90 % 0.00 in
06:39 76.3 °F 73.0 °F 29.77 in NW 1.0 mph 8.0 mph 90 % 0.00 in
06:44 76.3 °F 73.0 °F 29.77 in NW 1.0 mph 8.0 mph 90 % 0.00 in
06:49 76.3 °F 72.9 °F 29.77 in NNW 5.0 mph 8.0 mph 89 % 0.00 in
06:54 76.5 °F 73.0 °F 29.77 in WNW 7.0 mph 7.0 mph 89 % 0.00 in
06:59 76.5 °F 72.7 °F 29.77 in NNW 2.0 mph 9.0 mph 88 % 0.00 in
07:04 76.5 °F 72.7 °F 29.77 in NW 3.0 mph 9.0 mph 88 % 0.00 in
07:09 76.6 °F 72.9 °F 29.76 in NW 3.0 mph 9.0 mph 88 % 0.00 in
07:14 76.6 °F 72.9 °F 29.77 in WNW 2.0 mph 9.0 mph 88 % 0.00 in
07:19 76.6 °F 72.9 °F 29.77 in NW 2.0 mph 9.0 mph 88 % 0.00 in
07:24 76.8 °F 73.0 °F 29.77 in WNW 3.0 mph 9.0 mph 88 % 0.00 in
07:29 76.8 °F 72.7 °F 29.77 in NNW 4.0 mph 9.0 mph 87 % 0.00 in
07:34 76.8 °F 72.7 °F 29.77 in NW 4.0 mph 9.0 mph 87 % 0.00 in
07:39 77.0 °F 72.9 °F 29.77 in North 6.0 mph 9.0 mph 87 % 0.00 in
07:44 77.2 °F 73.0 °F 29.77 in NNW 4.0 mph 9.0 mph 87 % 0.00 in
07:47 77.2 °F 72.7 °F 29.77 in NW 4.0 mph 9.0 mph 86 % 0.00 in
07:52 77.2 °F 72.7 °F 29.77 in NW 5.0 mph 9.0 mph 86 % 0.00 in
07:57 77.2 °F 72.7 °F 29.77 in NW 7.0 mph 9.0 mph 86 % 0.00 in
08:02 77.4 °F 72.9 °F 29.77 in NNW 5.0 mph 8.0 mph 86 % 0.00 in
08:07 77.4 °F 72.9 °F 29.76 in NNW 5.0 mph 8.0 mph 86 % 0.00 in
08:12 77.4 °F 72.9 °F 29.76 in WNW 2.0 mph 8.0 mph 86 % 0.00 in
08:17 77.5 °F 73.0 °F 29.76 in WNW 4.0 mph 8.0 mph 86 % 0.00 in
08:22 77.5 °F 72.7 °F 29.77 in NW 3.0 mph 8.0 mph 85 % 0.00 in
08:27 77.7 °F 72.9 °F 29.77 in West 5.0 mph 9.0 mph 85 % 0.00 in
08:32 77.7 °F 72.9 °F 29.77 in NW 3.0 mph 9.0 mph 85 % 0.00 in
08:37 77.9 °F 72.7 °F 29.77 in WNW 4.0 mph 9.0 mph 84 % 0.00 in
08:42 78.1 °F 72.5 °F 29.77 in NW 7.0 mph 9.0 mph 83 % 0.00 in
08:47 78.1 °F 72.5 °F 29.77 in NW 4.0 mph 9.0 mph 83 % 0.00 in
08:52 78.3 °F 72.7 °F 29.77 in WNW 3.0 mph 14.0 mph 83 % 0.00 in
08:57 78.4 °F 72.9 °F 29.77 in NNW 3.0 mph 14.0 mph 83 % 0.00 in
09:03 78.4 °F 72.5 °F 29.77 in NW 3.0 mph 15.0 mph 82 % 0.00 in
09:08 78.4 °F 72.1 °F 29.77 in NW 7.0 mph 15.0 mph 81 % 0.00 in
09:13 78.4 °F 72.5 °F 29.77 in South 6.0 mph 15.0 mph 82 % 0.00 in
09:18 78.4 °F 72.5 °F 29.77 in NNW 5.0 mph 15.0 mph 82 % 0.00 in
09:23 78.4 °F 72.5 °F 29.77 in NW 5.0 mph 15.0 mph 82 % 0.00 in
09:28 78.4 °F 72.5 °F 29.77 in SSW 2.0 mph 15.0 mph 82 % 0.00 in
09:33 78.4 °F 72.5 °F 29.77 in NW 7.0 mph 13.0 mph 82 % 0.00 in
09:38 78.6 °F 72.7 °F 29.76 in WSW 4.0 mph 13.0 mph 82 % 0.00 in
09:43 78.6 °F 72.3 °F 29.76 in WNW 8.0 mph 13.0 mph 81 % 0.00 in
09:48 78.8 °F 72.5 °F 29.76 in SW 2.0 mph 11.0 mph 81 % 0.00 in
09:53 79.0 °F 72.7 °F 29.76 in West 8.0 mph 11.0 mph 81 % 0.00 in
09:58 79.0 °F 72.3 °F 29.76 in NW 9.0 mph 11.0 mph 80 % 0.00 in
10:03 79.2 °F 72.5 °F 29.76 in SSW 2.0 mph 16.0 mph 80 % 0.00 in
10:08 79.3 °F 72.7 °F 29.76 in NNW 3.0 mph 16.0 mph 80 % 0.00 in
10:13 79.5 °F 72.9 °F 29.76 in NNW 8.0 mph 16.0 mph 80 % 0.00 in
10:18 79.9 °F 72.9 °F 29.76 in West 6.0 mph 17.0 mph 79 % 0.00 in
10:23 80.2 °F 73.0 °F 29.75 in WNW 1.0 mph 17.0 mph 79 % 0.00 in
10:28 80.4 °F 72.5 °F 29.75 in NNW 7.0 mph 17.0 mph 77 % 0.00 in
10:33 80.8 °F 73.2 °F 29.75 in NW 7.0 mph 12.0 mph 78 % 0.00 in
10:38 81.3 °F 73.4 °F 29.75 in North 13.0 mph 13.0 mph 77 % 0.00 in
10:43 81.7 °F 73.4 °F 29.74 in ENE 7.0 mph 13.0 mph 76 % 0.00 in
10:48 81.9 °F 73.2 °F 29.74 in North 11.0 mph 14.0 mph 75 % 0.00 in
10:53 82.4 °F 73.8 °F 29.74 in NNE 5.0 mph 14.0 mph 75 % 0.00 in
10:54 82.6 °F 73.8 °F 29.74 in NW 7.0 mph 14.0 mph 75 % 0.00 in
10:59 82.9 °F 73.8 °F 29.74 in North 4.0 mph 14.0 mph 74 % 0.00 in
11:03 83.5 °F 73.9 °F 29.74 in NW 6.0 mph 13.0 mph 73 % 0.00 in
11:08 83.3 °F 73.4 °F 29.74 in NNW 6.0 mph 14.0 mph 72 % 0.00 in
11:13 83.1 °F 73.2 °F 29.75 in NW 4.0 mph 15.0 mph 72 % 0.00 in
11:19 83.3 °F 73.8 °F 29.75 in WNW 3.0 mph 15.0 mph 73 % 0.00 in
11:24 83.7 °F 73.2 °F 29.74 in WNW 5.0 mph 15.0 mph 71 % 0.00 in
11:29 84.0 °F 73.6 °F 29.74 in NNE 6.0 mph 14.0 mph 71 % 0.00 in
11:34 84.0 °F 73.6 °F 29.74 in NW 10.0 mph 14.0 mph 71 % 0.00 in
11:39 84.6 °F 73.8 °F 29.75 in NNW 9.0 mph 14.0 mph 70 % 0.00 in
11:44 84.7 °F 73.0 °F 29.74 in NNW 6.0 mph 11.0 mph 68 % 0.00 in
11:49 84.9 °F 73.6 °F 29.74 in NNW 5.0 mph 11.0 mph 69 % 0.00 in
11:54 85.5 °F 73.2 °F 29.73 in North 7.0 mph 11.0 mph 67 % 0.00 in
11:59 85.5 °F 73.2 °F 29.73 in NNW 4.0 mph 14.0 mph 67 % 0.00 in
12:04 85.8 °F 73.9 °F 29.73 in NW 3.0 mph 14.0 mph 68 % 0.00 in
12:09 85.8 °F 72.1 °F 29.73 in SSE 7.0 mph 14.0 mph 64 % 0.00 in
12:14 85.1 °F 72.0 °F 29.73 in NE 6.0 mph 18.0 mph 65 % 0.00 in
12:19 85.5 °F 73.2 °F 29.73 in WNW 6.0 mph 18.0 mph 67 % 0.00 in
12:24 86.5 °F 73.4 °F 29.73 in NNE 3.0 mph 18.0 mph 65 % 0.00 in
12:29 87.1 °F 73.9 °F 29.73 in NW 3.0 mph 12.0 mph 65 % 0.00 in
12:34 86.7 °F 73.0 °F 29.73 in West 1.0 mph 13.0 mph 64 % 0.00 in
12:39 86.5 °F 73.4 °F 29.73 in NNW 6.0 mph 13.0 mph 65 % 0.00 in
12:44 86.7 °F 73.6 °F 29.72 in NW 4.0 mph 14.0 mph 65 % 0.00 in
12:49 87.1 °F 73.9 °F 29.73 in NNW 8.0 mph 14.0 mph 65 % 0.00 in
12:54 87.3 °F 73.6 °F 29.73 in NW 5.0 mph 14.0 mph 64 % 0.00 in
12:59 87.1 °F 72.9 °F 29.73 in NE 5.0 mph 16.0 mph 63 % 0.00 in
13:04 86.7 °F 73.0 °F 29.73 in NNW 8.0 mph 16.0 mph 64 % 0.00 in
13:09 86.9 °F 73.8 °F 29.73 in North 10.0 mph 16.0 mph 65 % 0.00 in
13:10 86.9 °F 73.2 °F 29.73 in NNW 12.0 mph 13.0 mph 64 % 0.00 in
13:15 86.5 °F 72.9 °F 29.72 in NNE 9.0 mph 21.0 mph 64 % 0.00 in
13:20 86.9 °F 73.8 °F 29.72 in NNW 5.0 mph 21.0 mph 65 % 0.00 in
13:25 86.9 °F 73.8 °F 29.72 in NW 7.0 mph 21.0 mph 65 % 0.00 in
13:30 86.5 °F 72.9 °F 29.72 in NE 5.0 mph 19.0 mph 64 % 0.00 in
13:35 86.7 °F 73.0 °F 29.72 in ENE 3.0 mph 19.0 mph 64 % 0.00 in
13:40 87.1 °F 73.4 °F 29.72 in NW 3.0 mph 19.0 mph 64 % 0.00 in
13:45 87.6 °F 73.9 °F 29.72 in NW 4.0 mph 15.0 mph 64 % 0.00 in
13:50 87.3 °F 73.0 °F 29.71 in NNW 4.0 mph 15.0 mph 63 % 0.00 in
13:55 87.3 °F 73.0 °F 29.70 in NW 6.0 mph 15.0 mph 63 % 0.00 in
14:00 87.3 °F 73.6 °F 29.70 in NE 4.0 mph 15.0 mph 64 % 0.00 in
14:05 87.4 °F 74.3 °F 29.70 in WNW 1.0 mph 15.0 mph 65 % 0.00 in
14:10 87.4 °F 73.2 °F 29.70 in WNW 7.0 mph 13.0 mph 63 % 0.00 in
14:15 86.7 °F 73.0 °F 29.70 in NW 9.0 mph 13.0 mph 64 % 0.00 in
14:20 86.5 °F 73.4 °F 29.70 in North 4.0 mph 13.0 mph 65 % 0.00 in
14:25 86.4 °F 73.2 °F 29.70 in NNW 8.0 mph 13.0 mph 65 % 0.00 in
14:30 85.8 °F 72.7 °F 29.70 in West 8.0 mph 14.0 mph 65 % 0.00 in
14:35 85.6 °F 73.0 °F 29.70 in North 9.0 mph 14.0 mph 66 % 0.00 in
14:41 85.3 °F 72.7 °F 29.69 in NW 2.0 mph 15.0 mph 66 % 0.00 in
14:46 84.9 °F 72.7 °F 29.70 in NE 6.0 mph 15.0 mph 67 % 0.00 in
14:51 84.7 °F 72.5 °F 29.69 in NNW 3.0 mph 15.0 mph 67 % 0.00 in
14:56 84.7 °F 73.0 °F 29.69 in NNW 5.0 mph 13.0 mph 68 % 0.00 in
15:01 84.7 °F 73.4 °F 29.69 in West 3.0 mph 11.0 mph 69 % 0.00 in
15:06 84.9 °F 73.2 °F 29.68 in WNW 5.0 mph 14.0 mph 68 % 0.00 in
15:11 84.6 °F 72.9 °F 29.68 in WNW 8.0 mph 15.0 mph 68 % 0.00 in
15:16 84.4 °F 73.0 °F 29.68 in North 3.0 mph 15.0 mph 69 % 0.00 in
15:21 84.0 °F 72.7 °F 29.68 in NNE 13.0 mph 15.0 mph 69 % 0.00 in
15:26 83.8 °F 73.0 °F 29.68 in NE 7.0 mph 14.0 mph 70 % 0.00 in
15:31 83.7 °F 73.2 °F 29.68 in West 4.0 mph 14.0 mph 71 % 0.00 in
15:36 83.7 °F 73.2 °F 29.68 in NNW 5.0 mph 14.0 mph 71 % 0.00 in
15:41 83.8 °F 73.8 °F 29.68 in WNW 3.0 mph 16.0 mph 72 % 0.00 in
15:46 84.4 °F 73.9 °F 29.68 in NW 7.0 mph 16.0 mph 71 % 0.00 in
15:51 84.4 °F 73.9 °F 29.68 in NW 4.0 mph 16.0 mph 71 % 0.00 in
15:56 84.4 °F 73.9 °F 29.68 in NNE 11.0 mph 11.0 mph 71 % 0.00 in
16:01 83.8 °F 73.8 °F 29.68 in North 10.0 mph 14.0 mph 72 % 0.00 in
16:02 83.7 °F 73.6 °F 29.67 in North 10.0 mph 14.0 mph 72 % 0.00 in
16:07 83.7 °F 74.1 °F 29.67 in NNW 6.0 mph 14.0 mph 73 % 0.00 in
16:12 83.7 °F 74.1 °F 29.67 in NNW 7.0 mph 14.0 mph 73 % 0.00 in
16:17 83.5 °F 73.9 °F 29.66 in NNW 5.0 mph 14.0 mph 73 % 0.00 in
16:22 83.5 °F 73.9 °F 29.66 in NW 2.0 mph 14.0 mph 73 % 0.00 in
16:27 83.5 °F 74.3 °F 29.66 in NW 5.0 mph 15.0 mph 74 % 0.00 in
16:32 83.7 °F 74.5 °F 29.66 in NNW 6.0 mph 15.0 mph 74 % 0.00 in
16:37 83.7 °F 74.5 °F 29.65 in NNW 7.0 mph 15.0 mph 74 % 0.00 in
16:38 83.7 °F 74.5 °F 29.65 in NW 5.0 mph 15.0 mph 74 % 0.00 in
16:43 83.7 °F 74.5 °F 29.65 in NW 12.0 mph 15.0 mph 74 % 0.00 in
16:48 83.7 °F 74.5 °F 29.65 in North 6.0 mph 15.0 mph 74 % 0.00 in
16:53 83.7 °F 74.5 °F 29.65 in NW 8.0 mph 15.0 mph 74 % 0.00 in
16:58 83.7 °F 74.5 °F 29.65 in NW 4.0 mph 15.0 mph 74 % 0.00 in
17:03 83.8 °F 74.7 °F 29.65 in WNW 2.0 mph 16.0 mph 74 % 0.00 in
17:05 84.0 °F 74.8 °F 29.65 in NNW 6.0 mph 16.0 mph 74 % 0.00 in
17:10 84.0 °F 74.8 °F 29.64 in NNW 6.0 mph 16.0 mph 74 % 0.00 in
17:15 84.0 °F 74.8 °F 29.64 in ENE 13.0 mph 16.0 mph 74 % 0.00 in
17:20 84.0 °F 74.8 °F 29.64 in NW 5.0 mph 13.0 mph 74 % 0.00 in
17:25 84.0 °F 74.5 °F 29.64 in NW 10.0 mph 13.0 mph 73 % 0.00 in
17:30 84.0 °F 74.8 °F 29.64 in North 8.0 mph 13.0 mph 74 % 0.00 in
17:34 84.0 °F 74.8 °F 29.64 in NNW 11.0 mph 19.0 mph 74 % 0.00 in
17:36 84.0 °F 74.5 °F 29.64 in WNW 10.0 mph 19.0 mph 73 % 0.00 in
17:41 83.8 °F 74.7 °F 29.64 in NNW 7.0 mph 19.0 mph 74 % 0.00 in
17:46 83.7 °F 74.5 °F 29.64 in NNW 9.0 mph 17.0 mph 74 % 0.00 in
17:51 83.7 °F 74.5 °F 29.64 in NW 10.0 mph 18.0 mph 74 % 0.00 in
17:56 83.7 °F 74.8 °F 29.64 in NNW 4.0 mph 18.0 mph 75 % 0.00 in
18:01 83.7 °F 74.8 °F 29.64 in North 2.0 mph 18.0 mph 75 % 0.00 in
18:06 83.7 °F 74.8 °F 29.64 in NW 8.0 mph 15.0 mph 75 % 0.00 in
18:11 83.5 °F 74.7 °F 29.64 in West 3.0 mph 13.0 mph 75 % 0.00 in
18:16 83.5 °F 75.0 °F 29.64 in NW 8.0 mph 13.0 mph 76 % 0.00 in
18:21 83.5 °F 75.0 °F 29.64 in NW 4.0 mph 13.0 mph 76 % 0.00 in
18:26 83.5 °F 74.7 °F 29.64 in NW 8.0 mph 13.0 mph 75 % 0.00 in
18:31 83.1 °F 74.8 °F 29.64 in NNE 8.0 mph 15.0 mph 76 % 0.00 in
18:36 83.1 °F 74.8 °F 29.64 in ENE 5.0 mph 15.0 mph 76 % 0.00 in
18:41 82.9 °F 74.7 °F 29.64 in North 3.0 mph 15.0 mph 76 % 0.00 in
18:46 82.9 °F 74.7 °F 29.64 in NNE 3.0 mph 12.0 mph 76 % 0.00 in
18:51 82.8 °F 74.5 °F 29.65 in North 6.0 mph 12.0 mph 76 % 0.00 in
18:56 82.4 °F 74.5 °F 29.64 in NNW 5.0 mph 12.0 mph 77 % 0.00 in
19:01 81.9 °F 75.0 °F 29.64 in NNE 5.0 mph 12.0 mph 80 % 0.00 in
19:06 80.8 °F 74.8 °F 29.64 in NW 4.0 mph 11.0 mph 82 % 0.00 in
19:11 80.4 °F 74.8 °F 29.64 in NNE 1.0 mph 13.0 mph 83 % 0.00 in
19:16 80.4 °F 74.8 °F 29.64 in North 5.0 mph 13.0 mph 83 % 0.00 in
19:21 80.4 °F 74.8 °F 29.64 in NW 1.0 mph 13.0 mph 83 % 0.00 in
19:26 80.4 °F 74.5 °F 29.64 in NNE 5.0 mph 10.0 mph 82 % 0.00 in
19:31 80.4 °F 74.5 °F 29.64 in NW 4.0 mph 14.0 mph 82 % 0.00 in
19:36 80.4 °F 74.1 °F 29.64 in NNW 5.0 mph 16.0 mph 81 % 0.00 in
19:42 80.4 °F 74.1 °F 29.63 in North 2.0 mph 16.0 mph 81 % 0.00 in
19:47 80.4 °F 74.1 °F 29.63 in NW 5.0 mph 16.0 mph 81 % 0.00 in
19:52 80.4 °F 74.1 °F 29.63 in NNW 6.0 mph 12.0 mph 81 % 0.00 in
19:57 80.2 °F 73.9 °F 29.62 in WNW 10.0 mph 11.0 mph 81 % 0.00 in
20:02 80.2 °F 73.9 °F 29.62 in NW 2.0 mph 11.0 mph 81 % 0.00 in
20:07 80.2 °F 73.9 °F 29.62 in NW 3.0 mph 11.0 mph 81 % 0.00 in
20:08 80.2 °F 73.9 °F 29.62 in NNW 2.0 mph 11.0 mph 81 % 0.00 in
20:13 80.1 °F 74.1 °F 29.62 in WNW 1.0 mph 14.0 mph 82 % 0.00 in
20:18 79.9 °F 73.9 °F 29.62 in NW 3.0 mph 14.0 mph 82 % 0.00 in
20:23 79.5 °F 73.9 °F 29.62 in NW 12.0 mph 14.0 mph 83 % 0.00 in
20:27 79.3 °F 74.1 °F 29.62 in NW 7.0 mph 14.0 mph 84 % 0.00 in
20:32 79.2 °F 73.9 °F 29.62 in NNW 10.0 mph 14.0 mph 84 % 0.00 in
20:36 79.0 °F 73.8 °F 29.62 in NW 6.0 mph 14.0 mph 84 % 0.00 in
20:41 79.0 °F 73.8 °F 29.62 in NW 2.0 mph 15.0 mph 84 % 0.00 in
20:46 79.0 °F 74.1 °F 29.62 in NNE 2.0 mph 15.0 mph 85 % 0.00 in
20:51 79.0 °F 74.1 °F 29.62 in NW 7.0 mph 15.0 mph 85 % 0.00 in
20:56 79.0 °F 74.1 °F 29.62 in NW 3.0 mph 13.0 mph 85 % 0.00 in
21:01 79.0 °F 74.1 °F 29.62 in WNW 2.0 mph 13.0 mph 85 % 0.00 in
21:06 79.0 °F 74.1 °F 29.62 in NNW 6.0 mph 13.0 mph 85 % 0.00 in
21:11 79.0 °F 74.1 °F 29.61 in NW 6.0 mph 13.0 mph 85 % 0.00 in
21:16 79.0 °F 74.1 °F 29.61 in NNW 5.0 mph 13.0 mph 85 % 0.00 in
21:21 79.0 °F 74.1 °F 29.61 in NNW 15.0 mph 15.0 mph 85 % 0.00 in
21:26 79.0 °F 74.1 °F 29.62 in SW 1.0 mph 15.0 mph 85 % 0.00 in
21:31 78.8 °F 73.6 °F 29.62 in NNW 6.0 mph 17.0 mph 84 % 0.00 in
21:36 79.0 °F 73.8 °F 29.62 in North 8.0 mph 17.0 mph 84 % 0.00 in
21:41 78.8 °F 73.9 °F 29.62 in NNE 4.0 mph 17.0 mph 85 % 0.00 in
21:46 78.8 °F 73.6 °F 29.62 in NW 4.0 mph 12.0 mph 84 % 0.00 in
21:51 78.8 °F 73.6 °F 29.62 in NW 2.0 mph 12.0 mph 84 % 0.00 in
21:56 78.8 °F 73.6 °F 29.62 in North 11.0 mph 11.0 mph 84 % 0.00 in
22:01 78.8 °F 73.9 °F 29.62 in NNW 5.0 mph 15.0 mph 85 % 0.00 in
22:06 78.4 °F 73.9 °F 29.62 in NNW 7.0 mph 15.0 mph 86 % 0.00 in
22:11 78.1 °F 74.3 °F 29.62 in NNW 6.0 mph 15.0 mph 88 % 0.00 in
22:16 77.7 °F 74.3 °F 29.62 in WNW 7.0 mph 13.0 mph 89 % 0.00 in
22:21 77.5 °F 74.1 °F 29.62 in North 5.0 mph 12.0 mph 89 % 0.00 in
22:26 77.5 °F 74.1 °F 29.62 in NW 4.0 mph 15.0 mph 89 % 0.00 in
22:31 77.5 °F 74.1 °F 29.62 in NNW 5.0 mph 15.0 mph 89 % 0.00 in
22:36 77.5 °F 73.8 °F 29.62 in NNW 6.0 mph 15.0 mph 88 % 0.00 in
22:42 77.7 °F 73.9 °F 29.62 in NW 4.0 mph 16.0 mph 88 % 0.00 in
22:47 77.7 °F 73.9 °F 29.62 in NNW 6.0 mph 16.0 mph 88 % 0.00 in
22:52 77.7 °F 73.9 °F 29.62 in West 3.0 mph 16.0 mph 88 % 0.00 in
22:57 77.7 °F 73.9 °F 29.62 in WNW 4.0 mph 13.0 mph 88 % 0.00 in
23:02 77.5 °F 74.1 °F 29.62 in NW 7.0 mph 13.0 mph 89 % 0.00 in
23:07 77.4 °F 73.9 °F 29.62 in NW 7.0 mph 15.0 mph 89 % 0.00 in
23:12 77.2 °F 73.9 °F 29.61 in NW 7.0 mph 15.0 mph 90 % 0.00 in
23:17 76.8 °F 73.9 °F 29.61 in NW 6.0 mph 15.0 mph 91 % 0.00 in
23:22 76.6 °F 73.8 °F 29.61 in NW 4.0 mph 13.0 mph 91 % 0.00 in
23:27 76.6 °F 74.1 °F 29.60 in NNW 7.0 mph 10.0 mph 92 % 0.00 in
23:32 76.5 °F 73.9 °F 29.61 in NW 4.0 mph 10.0 mph 92 % 0.00 in
23:37 76.3 °F 74.1 °F 29.61 in NNE 5.0 mph 10.0 mph 93 % 0.00 in
23:42 76.3 °F 74.1 °F 29.61 in WNW 4.0 mph 10.0 mph 93 % 0.00 in
23:47 76.3 °F 74.1 °F 29.61 in WNW 5.0 mph 10.0 mph 93 % 0.00 in
23:52 76.1 °F 73.9 °F 29.61 in NW 5.0 mph 10.0 mph 93 % 0.00 in
23:57 76.1 °F 74.3 °F 29.61 in NW 4.0 mph 10.0 mph 94 % 0.00 in
Spring, Texas: Villages of Bridgestone
Compliments of Weather Underground - 3.25 mb

Script developed by  Jim McMurry - jmcmurry@mwt.net Adapted for the template by  Wim van der Kuil - Leuven-Template.eu

You find our weather info also at:

UK Metoffice

WeatherCloud

Weather Underground

Mid-South Weather Network

AWEKAS

Citizen Weather Observer Program (CWOP)

HAMweather, WeatherForYou, PWS Weather

Equipment we use:

Weather-station
Davis Vantage Vue

Weather-program
Meteohub

Weather-server
Debian 7.9 x86 (Guest)

Provider
DreamHost

Davis Vantage Vue

Meteohub

Debian 7.9 x86 (Guest)

DreamHost